Location: Nied?wied?
(53.3665°N, 14.8184°E)
Time: 19:19:33
(UTC+00:00)

ISS - Pass Details

Date: 19 May 2021
Orbit: 417 x 422 km, 51.6° (Epoch: 14 June)

Event Time Altitude Azimuth Distance (km) Brightness Sun altitude
Rises 23:19:03 0° 279° (W) 2,372 0.1 -16.5°
Reaches altitude 10° 23:21:17 10° 269° (W) 1,506 -1.0 -16.5°
Enters shadow 23:22:58 23° 247° (WSW) 958 -2.2 -16.4°
